Location: *
(45.1961°N, 1.9694°E)
Time: 23:36:59
(UTC+00:00)

SJ 16-02 - Pass Details

Date: 25 August 2019
Orbit: 606 x 617 km, 75.0° (Epoch: 18 October)

Event Time Altitude Azimuth Distance (km) Brightness Sun altitude
Rises 20:14:46 0° 194° (SSW) 2,860 4.6 -15.5°
Reaches altitude 10° 20:16:59 10° 193° (SSW) 1,963 3.7 -15.8°
Maximum altitude 20:21:22 78° 108° (ESE) 632 1.2 -16.5°
Drops below altitude 10° 20:25:48 10° 22° (NNE) 1,985 4.1 -17.1°
Sets 20:28:04 0° 21° (NNE) 2,897 5.0 -17.4°
